This is the latest recevied weather packets stored in our database for station/object K3JSE-4. If no packets are shown the sender has not sent any weather packets the latest 10 day(s).
| Time | Temp. | Humidity | Pressure | Rain* | Wind** | Luminosity | Snow |
|---|---|---|---|---|---|---|---|
| 1777469143 | 12.22° C | 58% | 1015.6 hPa | 0 mm | - | - | - |
| 1777468843 | 12.22° C | 59% | 1015.8 hPa | 0 mm | - | - | - |
| 1777468543 | 12.22° C | 58% | 1015.9 hPa | 0 mm | - | - | - |
| 1777468243 | 11.67° C | 58% | 1015.8 hPa | 0 mm | - | - | - |
| 1777467943 | 11.67° C | 57% | 1016 hPa | 0 mm | - | - | - |
| 1777467643 | 11.67° C | 57% | 1016 hPa | 0 mm | - | - | - |
| 1777467343 | 11.67° C | 56% | 1016.1 hPa | 0 mm | - | - | - |
| 1777467043 | 11.67° C | 56% | 1016.1 hPa | 0 mm | - | - | - |
| 1777466743 | 12.22° C | 58% | 1016.1 hPa | 0 mm | - | - | - |
| 1777466443 | 12.22° C | 56% | 1015.9 hPa | 0 mm | - | - | - |
| 1777466143 | 11.67° C | 58% | 1015.8 hPa | 0 mm | - | - | - |
| 1777465843 | 11.67° C | 57% | 1015.6 hPa | 0 mm | - | - | - |
| 1777465544 | 11.67° C | 59% | 1015.6 hPa | 0 mm | - | - | - |
| 1777465244 | 11.11° C | 61% | 1015.7 hPa | 0 mm | - | - | - |
| 1777464944 | 11.11° C | 59% | 1015.8 hPa | 0 mm | - | - | - |
| 1777464644 | 11.11° C | 62% | 1015.9 hPa | 0 mm | - | - | - |
| 1777464344 | 11.11° C | 61% | 1015.9 hPa | 0 mm | - | - | - |
| 1777464044 | 10.56° C | 62% | 1015.8 hPa | 0 mm | - | - | - |
| 1777463744 | 10.56° C | 63% | 1016 hPa | 0 mm | - | - | - |
| 1777463444 | 10.56° C | 62% | 1016.1 hPa | 0 mm | - | - | - |
| 1777463144 | 10.56° C | 62% | 1016.1 hPa | 0 mm | - | - | - |
| 1777462844 | 10.56° C | 65% | 1016 hPa | 0 mm | - | - | - |
| 1777462544 | 10.56° C | 63% | 1016.1 hPa | 0 mm | - | - | - |
| 1777462244 | 10° C | 63% | 1016.1 hPa | 0 mm | - | - | - |
| 1777461944 | 10° C | 65% | 1016.2 hPa | 0 mm | - | - | - |
* Rain latest hour (hover to see other rain measurements)
** Current wind speed in m/s (hover to see current wind gust speed)